TimeEDT,TemperatureF,Dew PointF,Humidity,Sea Level PressureIn,VisibilityMPH,Wind Direction,Wind SpeedMPH,Gust SpeedMPH,PrecipitationIn,Events,Conditions,WindDirDegrees,DateUTC
12:15 AM,49.5,43.3,79,30.20,10.0,Calm,Calm,-,N/A,,Clear,0,2014-04-21 04:15:00
12:35 AM,47.8,43.9,86,30.20,10.0,Calm,Calm,-,N/A,,Clear,0,2014-04-21 04:35:00
12:55 AM,46.4,43.2,88,30.20,10.0,Calm,Calm,-,N/A,,Clear,0,2014-04-21 04:55:00
1:15 AM,47.1,43.2,86,30.20,10.0,Calm,Calm,-,N/A,,Clear,0,2014-04-21 05:15:00
1:35 AM,46.0,42.6,88,30.20,10.0,Calm,Calm,-,N/A,,Clear,0,2014-04-21 05:35:00
1:55 AM,45.7,43.5,92,30.20,10.0,Calm,Calm,-,N/A,,Clear,0,2014-04-21 05:55:00
2:15 AM,45.5,43.0,91,30.20,10.0,Calm,Calm,-,N/A,,Clear,0,2014-04-21 06:15:00
2:35 AM,44.4,40.8,87,30.19,10.0,Calm,Calm,-,N/A,,Clear,0,2014-04-21 06:35:00
2:55 AM,43.7,42.1,94,30.19,10.0,Calm,Calm,-,N/A,,Clear,0,2014-04-21 06:55:00
3:15 AM,44.2,41.0,88,30.18,10.0,Calm,Calm,-,N/A,,Clear,0,2014-04-21 07:15:00
3:35 AM,43.7,42.1,94,30.18,10.0,Calm,Calm,-,N/A,,Clear,0,2014-04-21 07:35:00
3:55 AM,42.8,40.3,91,30.18,10.0,Calm,Calm,-,N/A,,Clear,0,2014-04-21 07:55:00
4:15 AM,42.6,40.8,93,30.18,10.0,Calm,Calm,-,N/A,,Clear,0,2014-04-21 08:15:00
4:35 AM,41.0,38.8,92,30.18,10.0,Calm,Calm,-,N/A,,Clear,0,2014-04-21 08:35:00
4:55 AM,40.5,39.9,98,30.18,10.0,Calm,Calm,-,N/A,,Clear,0,2014-04-21 08:55:00
5:15 AM,40.5,38.7,93,30.18,10.0,Calm,Calm,-,N/A,,Clear,0,2014-04-21 09:15:00
5:35 AM,40.1,38.7,95,30.18,10.0,Calm,Calm,-,N/A,,Clear,0,2014-04-21 09:35:00
5:55 AM,39.4,39.0,99,30.19,5.0,Calm,Calm,-,N/A,,Clear,0,2014-04-21 09:55:00
6:15 AM,38.7,37.0,94,30.19,10.0,Calm,Calm,-,N/A,,Clear,0,2014-04-21 10:15:00
6:35 AM,39.4,39.0,99,30.19,7.0,Calm,Calm,-,N/A,,Clear,0,2014-04-21 10:35:00
6:55 AM,39.4,38.7,97,30.19,10.0,Calm,Calm,-,N/A,,Clear,0,2014-04-21 10:55:00
7:15 AM,38.1,36.3,93,30.20,10.0,Calm,Calm,-,N/A,,Clear,0,2014-04-21 11:15:00
7:35 AM,39.4,37.6,93,30.20,10.0,Calm,Calm,-,N/A,,Clear,0,2014-04-21 11:35:00
7:55 AM,41.2,39.4,93,30.20,10.0,Calm,Calm,-,N/A,,Clear,0,2014-04-21 11:55:00
8:15 AM,43.0,40.6,91,30.20,10.0,Calm,Calm,-,N/A,,Clear,0,2014-04-21 12:15:00
8:35 AM,44.4,41.0,88,30.20,10.0,Calm,Calm,-,N/A,,Clear,0,2014-04-21 12:35:00
8:55 AM,46.8,42.1,84,30.20,10.0,Calm,Calm,-,N/A,,Clear,0,2014-04-21 12:55:00
9:15 AM,49.8,42.8,77,30.20,10.0,Calm,Calm,-,N/A,,Clear,0,2014-04-21 13:15:00
9:35 AM,52.5,43.3,71,30.20,10.0,Calm,Calm,-,N/A,,Clear,0,2014-04-21 13:35:00
9:55 AM,55.9,44.1,64,30.20,10.0,Calm,Calm,-,N/A,,Clear,0,2014-04-21 13:55:00
10:15 AM,58.5,41.2,53,30.19,10.0,Calm,Calm,-,N/A,,Clear,0,2014-04-21 14:15:00
10:35 AM,60.8,39.2,45,30.18,10.0,Calm,Calm,-,N/A,,Clear,0,2014-04-21 14:35:00
10:55 AM,63.0,41.2,45,30.18,10.0,Calm,Calm,-,N/A,,Clear,0,2014-04-21 14:55:00
11:15 AM,65.1,38.7,38,30.17,10.0,Calm,Calm,-,N/A,,Clear,0,2014-04-21 15:15:00
11:35 AM,66.2,38.3,36,30.16,10.0,Calm,Calm,-,N/A,,Clear,0,2014-04-21 15:35:00
11:55 AM,68.4,39.9,35,30.15,10.0,West,3.5,-,N/A,,Clear,260,2014-04-21 15:55:00
12:15 PM,69.8,41.2,35,30.14,10.0,West,4.6,-,N/A,,Clear,270,2014-04-21 16:15:00
12:35 PM,-9999,-9999,N/A,-9999,-9999.0,North,-9999.0,-,N/A,,Unknown,0,2014-04-21 16:35:00
12:55 PM,-9999,-9999,N/A,-9999,-9999.0,North,-9999.0,-,N/A,,Unknown,0,2014-04-21 16:55:00
1:15 PM,73.2,41.7,32,30.10,10.0,Calm,Calm,-,N/A,,Clear,0,2014-04-21 17:15:00
1:35 PM,74.1,42.8,32,30.08,10.0,SSE,4.6,-,N/A,,Clear,150,2014-04-21 17:35:00
1:55 PM,75.2,43.7,32,-9999,10.0,West,6.9,-,N/A,,Clear,280,2014-04-21 17:55:00
2:15 PM,75.4,43.2,32,30.06,10.0,West,4.6,-,N/A,,Clear,260,2014-04-21 18:15:00
2:35 PM,75.6,41.5,29,30.05,10.0,Calm,Calm,-,N/A,,Clear,0,2014-04-21 18:35:00
2:55 PM,76.3,42.8,30,30.04,10.0,South,4.6,-,N/A,,Clear,170,2014-04-21 18:55:00
3:15 PM,76.8,43.2,30,30.03,10.0,Calm,Calm,-,N/A,,Clear,0,2014-04-21 19:15:00
3:35 PM,76.8,44.8,32,30.02,10.0,WSW,6.9,-,N/A,,Clear,250,2014-04-21 19:35:00
3:55 PM,76.5,44.8,32,30.01,10.0,WSW,8.1,-,N/A,,Clear,240,2014-04-21 19:55:00
4:15 PM,77.2,45.7,33,30.00,10.0,SW,12.7,-,N/A,,Clear,230,2014-04-21 20:15:00
4:35 PM,77.4,45.1,32,30.00,10.0,SW,10.4,-,N/A,,Clear,230,2014-04-21 20:35:00
4:55 PM,77.0,45.3,32,29.99,10.0,West,9.2,-,N/A,,Clear,260,2014-04-21 20:55:00
5:15 PM,77.7,46.8,33,29.99,10.0,WSW,11.5,17.3,N/A,,Clear,250,2014-04-21 21:15:00
6:15 PM,73.4,45.1,36,29.99,10.0,WSW,10.4,-,N/A,,Clear,250,2014-04-21 22:15:00
6:35 PM,73.8,46.4,38,29.98,10.0,West,10.4,-,N/A,,Clear,260,2014-04-21 22:35:00
6:55 PM,72.9,45.7,38,29.99,10.0,West,11.5,-,N/A,,Clear,260,2014-04-21 22:55:00
7:15 PM,70.9,45.0,39,29.99,10.0,West,8.1,-,N/A,,Clear,270,2014-04-21 23:15:00
7:35 PM,71.6,44.1,37,29.99,10.0,West,4.6,-,N/A,,Clear,270,2014-04-21 23:35:00
7:55 PM,70.7,43.3,37,29.99,10.0,West,6.9,-,N/A,,Clear,270,2014-04-21 23:55:00
8:15 PM,66.6,45.5,47,29.99,10.0,Calm,Calm,-,N/A,,Clear,0,2014-04-22 00:15:00
8:35 PM,61.9,46.8,58,29.99,10.0,Calm,Calm,-,N/A,,Clear,0,2014-04-22 00:35:00
8:55 PM,60.6,46.4,59,29.99,10.0,Calm,Calm,-,N/A,,Clear,0,2014-04-22 00:55:00
9:15 PM,57.0,48.0,72,29.99,10.0,Calm,Calm,-,N/A,,Clear,0,2014-04-22 01:15:00
9:35 PM,58.8,46.8,64,29.99,10.0,Calm,Calm,-,N/A,,Clear,0,2014-04-22 01:35:00
9:55 PM,59.0,47.1,65,30.00,10.0,Calm,Calm,-,N/A,,Clear,0,2014-04-22 01:55:00
10:15 PM,57.4,46.9,68,30.00,10.0,Calm,Calm,-,N/A,,Clear,0,2014-04-22 02:15:00
10:35 PM,56.7,47.3,71,30.00,10.0,Calm,Calm,-,N/A,,Clear,0,2014-04-22 02:35:00
10:55 PM,54.1,46.8,76,30.00,10.0,Calm,Calm,-,N/A,,Clear,0,2014-04-22 02:55:00
11:15 PM,54.9,45.7,71,29.99,10.0,Calm,Calm,-,N/A,,Scattered Clouds,0,2014-04-22 03:15:00
11:35 PM,53.1,45.9,77,29.99,10.0,Calm,Calm,-,N/A,,Clear,0,2014-04-22 03:35:00
11:55 PM,52.0,46.2,81,29.99,10.0,Calm,Calm,-,N/A,,Clear,0,2014-04-22 03:55:00